Time,TemperatureF,DewpointF,PressureIn,WindDirection,WindDirectionDegrees,WindSpeedMPH,WindSpeedGustMPH,Humidity,HourlyPrecipIn,Conditions,Clouds,dailyrainin,SoftwareType,DateUTC
2013-01-22 00:14:00,36.6,22.0,30.19,North,1,1.0,-999.0,56,-99.99,,,0.00,weatherlink.com 1.10,2013-01-22 05:14:00,
2013-01-22 00:29:00,36.4,22.0,30.19,North,5,1.0,-999.0,56,-99.99,,,0.00,weatherlink.com 1.10,2013-01-22 05:29:00,
2013-01-22 00:44:00,36.1,22.0,30.19,NNW,333,7.0,-999.0,56,-99.99,,,0.00,weatherlink.com 1.10,2013-01-22 05:44:00,
2013-01-22 00:59:00,35.7,21.0,30.20,West,262,6.0,-999.0,56,-99.99,,,0.00,weatherlink.com 1.10,2013-01-22 05:59:00,
2013-01-22 01:14:00,35.2,21.0,30.20,WNW,293,4.0,-999.0,56,-99.99,,,0.00,weatherlink.com 1.10,2013-01-22 06:14:00,
2013-01-22 01:29:00,34.7,21.0,30.19,WNW,294,2.0,-999.0,57,-99.99,,,0.00,weatherlink.com 1.10,2013-01-22 06:29:00,
2013-01-22 01:44:00,34.2,20.0,30.19,NW,322,2.0,-999.0,57,-99.99,,,0.00,weatherlink.com 1.10,2013-01-22 06:44:00,
2013-01-22 01:59:00,33.8,20.0,30.20,WNW,284,1.0,-999.0,58,-99.99,,,0.00,weatherlink.com 1.10,2013-01-22 06:59:00,
2013-01-22 02:14:00,33.4,19.0,30.20,NW,319,7.0,-999.0,57,-99.99,,,0.00,weatherlink.com 1.10,2013-01-22 07:14:00,
2013-01-22 02:29:00,33.0,19.0,30.20,NNW,328,2.0,-999.0,57,-99.99,,,0.00,weatherlink.com 1.10,2013-01-22 07:29:00,
2013-01-22 02:44:00,32.6,19.0,30.20,North,1,5.0,-999.0,58,-99.99,,,0.00,weatherlink.com 1.10,2013-01-22 07:44:00,
2013-01-22 02:59:00,32.2,19.0,30.20,NNW,328,11.0,-999.0,58,-99.99,,,0.00,weatherlink.com 1.10,2013-01-22 07:59:00,
2013-01-22 03:15:00,31.9,18.0,30.20,WNW,295,8.0,-999.0,58,-99.99,,,0.00,weatherlink.com 1.10,2013-01-22 08:15:00,
2013-01-22 03:30:00,31.5,18.0,30.20,NNW,329,6.0,-999.0,58,-99.99,,,0.00,weatherlink.com 1.10,2013-01-22 08:30:00,
2013-01-22 03:45:00,31.1,17.0,30.20,NW,316,4.0,-999.0,57,-99.99,,,0.00,weatherlink.com 1.10,2013-01-22 08:45:00,
2013-01-22 04:00:00,30.8,17.0,30.20,NNW,328,9.0,-999.0,58,-99.99,,,0.00,weatherlink.com 1.10,2013-01-22 09:00:00,
2013-01-22 04:15:00,30.5,18.0,30.20,NW,324,11.0,-999.0,59,-99.99,,,0.00,weatherlink.com 1.10,2013-01-22 09:15:00,
2013-01-22 04:30:00,30.2,17.0,30.20,West,277,6.0,-999.0,59,-99.99,,,0.00,weatherlink.com 1.10,2013-01-22 09:30:00,
2013-01-22 04:45:00,29.9,17.0,30.21,NW,320,10.0,-999.0,59,-99.99,,,0.00,weatherlink.com 1.10,2013-01-22 09:45:00,
2013-01-22 05:00:00,29.8,17.0,30.21,West,269,5.0,-999.0,58,-99.99,,,0.00,weatherlink.com 1.10,2013-01-22 10:00:00,
2013-01-22 05:15:00,29.7,16.0,30.21,NNW,339,6.0,-999.0,57,-99.99,,,0.00,weatherlink.com 1.10,2013-01-22 10:15:00,
2013-01-22 05:30:00,29.6,16.0,30.21,NNW,347,4.0,-999.0,57,-99.99,,,0.00,weatherlink.com 1.10,2013-01-22 10:30:00,
2013-01-22 05:45:00,29.4,16.0,30.22,NW,320,8.0,-999.0,58,-99.99,,,0.00,weatherlink.com 1.10,2013-01-22 10:45:00,
2013-01-22 06:00:00,29.2,16.0,30.23,NNW,330,1.0,-999.0,58,-99.99,,,0.00,weatherlink.com 1.10,2013-01-22 11:00:00,
2013-01-22 06:15:00,29.2,16.0,30.23,NNW,342,5.0,-999.0,57,-99.99,,,0.00,weatherlink.com 1.10,2013-01-22 11:15:00,
2013-01-22 06:30:00,29.1,15.0,30.24,NNE,20,3.0,-999.0,56,-99.99,,,0.00,weatherlink.com 1.10,2013-01-22 11:30:00,
2013-01-22 06:45:00,28.9,15.0,30.24,NW,324,9.0,-999.0,57,-99.99,,,0.00,weatherlink.com 1.10,2013-01-22 11:45:00,
2013-01-22 07:00:00,28.8,15.0,30.25,NW,307,1.0,-999.0,57,-99.99,,,0.00,weatherlink.com 1.10,2013-01-22 12:00:00,
2013-01-22 07:15:00,28.6,15.0,30.26,NW,316,4.0,-999.0,57,-99.99,,,0.00,weatherlink.com 1.10,2013-01-22 12:15:00,
2013-01-22 07:30:00,28.4,15.0,30.26,NW,308,5.0,-999.0,58,-99.99,,,0.00,weatherlink.com 1.10,2013-01-22 12:30:00,
2013-01-22 07:45:00,28.2,15.0,30.27,North,9,9.0,-999.0,57,-99.99,,,0.00,weatherlink.com 1.10,2013-01-22 12:45:00,
2013-01-22 08:00:00,28.0,15.0,30.27,NW,316,9.0,-999.0,58,-99.99,,,0.00,weatherlink.com 1.10,2013-01-22 13:00:00,
2013-01-22 08:15:00,28.0,14.0,30.28,WNW,283,4.0,-999.0,57,-99.99,,,0.00,weatherlink.com 1.10,2013-01-22 13:15:00,
2013-01-22 08:30:00,28.1,15.0,30.29,WNW,295,7.0,-999.0,58,-99.99,,,0.00,weatherlink.com 1.10,2013-01-22 13:30:00,
2013-01-22 08:45:00,28.4,15.0,30.29,WNW,298,1.0,-999.0,58,-99.99,,,0.00,weatherlink.com 1.10,2013-01-22 13:45:00,
2013-01-22 09:00:00,29.0,15.0,30.30,NW,319,5.0,-999.0,56,-99.99,,,0.00,weatherlink.com 1.10,2013-01-22 14:00:00,
2013-01-22 09:15:00,29.5,15.0,30.30,North,349,5.0,-999.0,55,-99.99,,,0.00,weatherlink.com 1.10,2013-01-22 14:15:00,
2013-01-22 09:31:00,29.7,14.0,30.32,NNE,21,6.0,-999.0,52,-99.99,,,0.00,weatherlink.com 1.10,2013-01-22 14:31:00,
2013-01-22 09:46:00,30.3,14.0,30.32,West,267,4.0,-999.0,52,-99.99,,,0.00,weatherlink.com 1.10,2013-01-22 14:46:00,
2013-01-22 10:01:00,30.8,14.0,30.32,NW,316,5.0,-999.0,49,-99.99,,,0.00,weatherlink.com 1.10,2013-01-22 15:01:00,
2013-01-22 10:16:00,30.9,13.0,30.33,West,268,11.0,-999.0,48,-99.99,,,0.00,weatherlink.com 1.10,2013-01-22 15:16:00,
2013-01-22 10:31:00,32.1,14.0,30.34,NNE,14,11.0,-999.0,47,-99.99,,,0.00,weatherlink.com 1.10,2013-01-22 15:31:00,
2013-01-22 10:46:00,32.5,14.0,30.34,North,2,7.0,-999.0,47,-99.99,,,0.00,weatherlink.com 1.10,2013-01-22 15:46:00,
2013-01-22 11:16:00,34.8,15.0,30.34,NW,309,12.0,-999.0,44,-99.99,,,0.00,weatherlink.com 1.10,2013-01-22 16:16:00,
2013-01-22 11:31:00,35.4,15.0,30.35,NNW,334,7.0,-999.0,43,-99.99,,,0.00,weatherlink.com 1.10,2013-01-22 16:31:00,
2013-01-22 12:16:00,37.8,15.0,30.33,WNW,282,5.0,-999.0,40,-99.99,,,0.00,weatherlink.com 1.10,2013-01-22 17:16:00,
2013-01-22 12:31:00,38.2,15.0,30.33,WSW,254,5.0,-999.0,39,-99.99,,,0.00,weatherlink.com 1.10,2013-01-22 17:31:00,
2013-01-22 13:01:00,39.3,15.0,30.32,NNE,12,4.0,-999.0,38,-99.99,,,0.00,weatherlink.com 1.10,2013-01-22 18:01:00,
2013-01-22 13:16:00,39.3,15.0,30.31,NE,44,5.0,-999.0,38,-99.99,,,0.00,weatherlink.com 1.10,2013-01-22 18:16:00,
2013-01-22 13:46:00,39.9,16.0,30.30,West,276,4.0,-999.0,38,-99.99,,,0.00,weatherlink.com 1.10,2013-01-22 18:46:00,
2013-01-22 14:01:00,40.5,17.0,30.30,WNW,283,6.0,-999.0,39,-99.99,,,0.00,weatherlink.com 1.10,2013-01-22 19:01:00,
2013-01-22 14:16:00,40.1,17.0,30.29,NW,310,5.0,-999.0,39,-99.99,,,0.00,weatherlink.com 1.10,2013-01-22 19:16:00,
2013-01-22 14:46:00,40.8,17.0,30.29,NW,307,5.0,-999.0,39,-99.99,,,0.00,weatherlink.com 1.10,2013-01-22 19:46:00,
2013-01-22 15:01:00,41.3,17.0,30.29,West,274,1.0,-999.0,38,-99.99,,,0.00,weatherlink.com 1.10,2013-01-22 20:01:00,
2013-01-22 15:31:00,41.9,19.0,30.29,NW,308,7.0,-999.0,40,-99.99,,,0.00,weatherlink.com 1.10,2013-01-22 20:31:00,
2013-01-22 15:46:00,41.7,19.0,30.29,NW,319,6.0,-999.0,41,-99.99,,,0.00,weatherlink.com 1.10,2013-01-22 20:46:00,
2013-01-22 16:01:00,42.1,19.0,30.29,NW,316,1.0,-999.0,39,-99.99,,,0.00,weatherlink.com 1.10,2013-01-22 21:01:00,
2013-01-22 16:16:00,41.6,18.0,30.30,WNW,301,9.0,-999.0,39,-99.99,,,0.00,weatherlink.com 1.10,2013-01-22 21:16:00,
2013-01-22 16:31:00,41.1,18.0,30.31,NW,316,9.0,-999.0,39,-99.99,,,0.00,weatherlink.com 1.10,2013-01-22 21:31:00,
2013-01-22 16:46:00,41.1,19.0,30.31,WNW,293,12.0,-999.0,41,-99.99,,,0.00,weatherlink.com 1.10,2013-01-22 21:46:00,
2013-01-22 17:01:00,40.8,19.0,30.31,NW,316,7.0,-999.0,41,-99.99,,,0.00,weatherlink.com 1.10,2013-01-22 22:01:00,
2013-01-22 17:16:00,40.5,19.0,30.31,NNW,328,0.0,-999.0,42,-99.99,,,0.00,weatherlink.com 1.10,2013-01-22 22:16:00,
2013-01-22 17:31:00,40.1,19.0,30.32,WNW,299,5.0,-999.0,43,-99.99,,,0.00,weatherlink.com 1.10,2013-01-22 22:31:00,
2013-01-22 17:46:00,39.5,19.0,30.31,North,356,1.0,-999.0,43,-99.99,,,0.00,weatherlink.com 1.10,2013-01-22 22:46:00,
2013-01-22 18:01:00,38.8,19.0,30.32,North,2,1.0,-999.0,45,-99.99,,,0.00,weatherlink.com 1.10,2013-01-22 23:01:00,
2013-01-22 18:16:00,38.2,20.0,30.32,NNW,347,0.0,-999.0,49,-99.99,,,0.00,weatherlink.com 1.10,2013-01-22 23:16:00,
2013-01-22 18:31:00,37.5,20.0,30.31,NNW,347,0.0,-999.0,49,-99.99,,,0.00,weatherlink.com 1.10,2013-01-22 23:31:00,
2013-01-22 19:01:00,35.7,19.0,30.32,NNW,347,0.0,-999.0,52,-99.99,,,0.00,weatherlink.com 1.10,2013-01-23 00:01:00,
2013-01-22 19:16:00,34.8,20.0,30.33,NNW,347,0.0,-999.0,56,-99.99,,,0.00,weatherlink.com 1.10,2013-01-23 00:16:00,
2013-01-22 19:46:00,33.2,21.0,30.33,NNW,347,0.0,-999.0,60,-99.99,,,0.00,weatherlink.com 1.10,2013-01-23 00:46:00,
2013-01-22 20:01:00,32.6,21.0,30.34,NNW,347,0.0,-999.0,62,-99.99,,,0.00,weatherlink.com 1.10,2013-01-23 01:01:00,
2013-01-22 20:16:00,31.9,20.0,30.35,NNW,347,0.0,-999.0,62,-99.99,,,0.00,weatherlink.com 1.10,2013-01-23 01:16:00,
2013-01-22 20:46:00,31.1,21.0,30.33,NNW,347,0.0,-999.0,65,-99.99,,,0.00,weatherlink.com 1.10,2013-01-23 01:46:00,
2013-01-22 21:16:00,30.8,21.0,30.34,NNW,347,0.0,-999.0,68,-99.99,,,0.00,weatherlink.com 1.10,2013-01-23 02:16:00,
2013-01-22 21:31:00,30.9,22.0,30.34,NNW,347,0.0,-999.0,69,-99.99,,,0.00,weatherlink.com 1.10,2013-01-23 02:31:00,
2013-01-22 21:46:00,31.0,22.0,30.34,NNW,347,0.0,-999.0,69,-99.99,,,0.00,weatherlink.com 1.10,2013-01-23 02:46:00,
2013-01-22 22:01:00,30.8,22.0,30.34,NNW,347,0.0,-999.0,69,-99.99,,,0.00,weatherlink.com 1.10,2013-01-23 03:01:00,
2013-01-22 22:31:00,30.3,22.0,30.34,NW,326,0.0,-999.0,71,-99.99,,,0.00,weatherlink.com 1.10,2013-01-23 03:31:00,
2013-01-22 22:46:00,30.1,22.0,30.34,NW,326,0.0,-999.0,72,-99.99,,,0.00,weatherlink.com 1.10,2013-01-23 03:46:00,
2013-01-22 23:02:00,29.9,22.0,30.34,NW,326,0.0,-999.0,72,-99.99,,,0.00,weatherlink.com 1.10,2013-01-23 04:02:00,
2013-01-22 23:16:00,29.7,21.0,30.34,NW,326,0.0,-999.0,69,-99.99,,,0.00,weatherlink.com 1.10,2013-01-23 04:16:00,
2013-01-22 23:31:00,29.5,21.0,30.34,NW,326,1.0,-999.0,71,-99.99,,,0.00,weatherlink.com 1.10,2013-01-23 04:31:00,
2013-01-22 23:46:00,29.2,20.0,30.35,NW,326,0.0,-999.0,69,-99.99,,,0.00,weatherlink.com 1.10,2013-01-23 04:46:00,